Location: Unspecified
(48.5539°N, 71.6350°W)
Time: 10:42:39
(UTC-04:00)

ISS - Pass Details

Date: 27 January 2019
Orbit: 411 x 421 km, 51.6° (Epoch: 21 October)

Event Time Altitude Azimuth Distance (km) Brightness Sun altitude
Rises 16:57:52 0° 232° (SW) 2,402 2.0 -4.0°
Reaches altitude 10° 16:59:59 10° 227° (SW) 1,540 0.6 -4.3°
Maximum altitude 17:03:22 52° 150° (SSE) 552 -3.2 -4.8°
Drops below altitude 10° 17:06:47 10° 74° (ENE) 1,554 -1.6 -5.3°
Enters shadow 17:07:23 - 72° (ENE) 1,795 -1.3 -5.4°
Sets 17:08:56 0° 69° (ENE) 2,427 - -5.7°
